Skip Page Navigation
NASA JPL Caltech
NASA Logo - Jet Propulsion Laboratory + View the NASA Portal
+ Center for Near-Earth Object Studies
JPL Home Earth Solar System Stars & Galaxies Technology
JPL Solar System Dynamics
BODIES ORBITS EPHEMERIDES TOOLS PHYSICAL DATA DISCOVERY FAQ SITE MAP
JPL Small-Body Database Browser
Search: [ help ]  
117451 (2005 AA50)
Classification: Main-belt Asteroid          SPK-ID: 2117451
Ephemeris | Orbit Diagram | Orbital Elements | Mission Design | Physical Parameters | Discovery Circumstances | Close-Approach Data ]

[ show orbit diagram ]
Orbital Elements at Epoch 2459000.5 (2020-May-31.0) TDB
Reference: JPL 14 (heliocentric ecliptic J2000)
 Element Value Uncertainty (1-sigma)   Units 
e .02094863947031651 3.5969e-08  
a 2.496180363673087 1.2954e-08 au
q 2.443888781181616 8.6773e-08 au
i 3.068811092588288 5.012e-06 deg
node 227.4495627929421 6.4017e-05 deg
peri 58.59462779532058 0.00013376 deg
M 152.2559935012172 0.00011644 deg
tp 2458391.265810711152
(2018-Sep-29.76581071)
0.00046561 TDB
period 1440.497041203387
3.94
1.1213e-05
3.07e-08
d
yr
n .2499137378992859 1.9454e-09 deg/d
Q 2.548471946164558 1.3225e-08 au
  Orbit Determination Parameters
   # obs. used (total)      536  
   data-arc span      9665 days (26.46 yr)  
   first obs. used      1994-05-05  
   last obs. used      2020-10-20  
   planetary ephem.      DE431  
   SB-pert. ephem.      SB431-N16  
   condition code      0  
   norm. resid. RMS      .53446  
   source      ORB  
   producer      Otto Matic  
   solution date      2020-Nov-12 18:18:36  

Additional Information
 Earth MOID = 1.42919 au 
 Jupiter MOID = 2.46043 au 
 T_jup = 3.467 
[ show covariance matrix ]

Ephemeris | Orbit Diagram | Orbital Elements | Mission Design | Physical Parameters | Discovery Circumstances | Close-Approach Data ]

Physical Parameter Table
Parameter Symbol Value Units Sigma Reference Notes
absolute magnitude H 16.3   n/a MPO453645  
diameter diameter 3.590 km 0.132 urn:nasa:pds:neowise_diameters_albedos::2.0[mainbelt] (http://adsabs.harvard.edu/abs/2011ApJ...741...68M)  
geometric albedo albedo 0.041   0.005 urn:nasa:pds:neowise_diameters_albedos::2.0[mainbelt] (http://adsabs.harvard.edu/abs/2011ApJ...741...68M)  

117451 (2005 AA50)          Discovered 2005-Jan-13 by CSS at Catalina
Reference: 20051019/Numbers.arcLast Updated: 2005-10-26

[ show close-approach data ]
Alternate Designations
 2005 AA50 = 2002 JH55 
Ephemeris | Orbit Diagram | Orbital Elements | Mission Design | Physical Parameters | Discovery Circumstances | Close-Approach Data ]
ABOUT SSD CREDITS/AWARDS PRIVACY/COPYRIGHT GLOSSARY LINKS
FirstGov 2020-Dec-01 22:18 UT
(server date/time)  
NASA Home Page
Site Manager:   Ryan S. Park
Webmaster  Alan B. Chamberlin